Albany, GA

6:14 PM EDT on June 27, 2017 (GMT -0400)
Southwest Georgia Regional

Weather History for KABY - February, 2013

Change the Weather History Date:

Sunday, February 24, 2013

  Actual Average Record
Temperature  
Mean Temperature 61 °F 54 °F  
Max Temperature 72 °F 67 °F 83 °F (2017)
Min Temperature 49 °F 42 °F 21 °F (1989)
Degree Days  
Heating Degree Days 4 11  
Month to date heating degree days 373 314  
Since 1 July heating degree days 1295 1518  
Cooling Degree Days 0 0  
Month to date cooling degree days 0 0  
Year to date cooling degree days 27 4  
Growing Degree Days 10 (Base 50)    
Moisture  
Dew Point 45 °F    
Average Humidity 64    
Maximum Humidity 100    
Minimum Humidity 27    
Precipitation  
Precipitation T in 0.15 in 3.53 in (2016)
Month to date precipitation 6.64 3.49  
Year to date precipitation 7.96 8.31  
Sea Level Pressure  
Sea Level Pressure 30.00 in    
Wind  
Wind Speed 4 mph (NNE)    
Max Wind Speed 10 mph    
Max Gust Speed 14 mph    
Visibility 7 miles    
Events Fog , Rain    
T = Trace of Precipitation, MM = Missing Value Source: NWS Daily Summary

Daily Weather History Graph

Daily Weather History Graph

Search for Another Location

Airport or City:

Trip Planner

Search our weather history database for the weather conditions in past years. The results will help you decide how hot, cold, wet, or windy it might be!

Date:

Astronomy

Feb. 24, 2013 Rise Set
Actual Time 7:09 AM EST 6:31 PM EST
Civil Twilight 6:44 AM EST 6:55 PM EST
Nautical Twilight 6:16 AM EST 7:24 PM EST
Astronomical Twilight 5:48 AM EST 7:52 PM EST
Moon 5:41 PM EST (2/24) 6:04 AM EST (2/24)
Length of Visible Light 12h 11m
Length of Day
11h 22m
Waxing Gibbous, 99% of the Moon is Illuminated
Feb 24
Waxing Gibbous
Feb 25
Full
Mar 4
Last Quarter
Mar 11
New
Mar 19
First Quarter

Hourly Weather History & Observations

Time (EST) Temp. Dew Point Humidity Pressure Visibility Wind Dir Wind Speed Gust Speed Precip Events Conditions
12:29 AM 51.8 °F - N/A% 29.95 in 4.0 mi NNW 6.9 mph - 0.00 in Rain Rain
12:53 AM 52.0 °F - N/A% 29.96 in 3.0 mi NNW 5.8 mph - 0.00 in Rain Rain
1:45 AM 51.8 °F - N/A% 29.97 in 10.0 mi North 5.8 mph - 0.00 in Rain Rain
1:53 AM 52.0 °F - N/A% 29.98 in 10.0 mi NNW 4.6 mph - 0.00 in Rain Rain
2:53 AM 52.0 °F - N/A% 29.97 in 10.0 mi North 3.5 mph - 0.00 in Rain Rain
3:53 AM 51.1 °F - N/A% 29.96 in 10.0 mi North 3.5 mph - 0.00 in Rain Rain
4:53 AM 51.1 °F - N/A% 29.97 in 6.0 mi NNW 3.5 mph - 0.00 in Rain Rain
5:53 AM 50.0 °F - N/A% 29.98 in 6.0 mi NNE 3.5 mph - 0.00 in Rain Rain
6:23 AM 50.0 °F - N/A% 29.99 in 2.0 mi North 3.5 mph - 0.00 in Rain Rain
6:51 AM 50.0 °F - N/A% 30.00 in 3.0 mi Calm Calm - 0.00 in Rain Rain
7:05 AM 50.0 °F - N/A% 30.00 in 1.5 mi NW 3.5 mph - 0.00 in Rain Rain
7:12 AM 48.2 °F - N/A% 30.00 in 0.2 mi NW 3.5 mph - 0.00 in Rain Rain
7:53 AM 48.9 °F 48.0 °F 97% 30.02 in 0.2 mi NNW 4.6 mph - 0.00 in Fog Fog
8:26 AM 48.2 °F 48.2 °F 100% 30.03 in 0.8 mi Calm Calm - N/A   Overcast
8:53 AM 48.9 °F 48.0 °F 97% 30.04 in 2.0 mi NE 4.6 mph - N/A   Overcast
9:32 AM 50.0 °F 48.2 °F 94% 30.05 in 5.0 mi NNE 5.8 mph - N/A   Mostly Cloudy
9:53 AM 50.0 °F 48.0 °F 93% 30.06 in 7.0 mi NE 5.8 mph - N/A   Mostly Cloudy
10:53 AM 53.1 °F 48.0 °F 83% 30.06 in 10.0 mi Variable 4.6 mph - N/A   Mostly Cloudy
11:05 AM 55.4 °F 46.4 °F 72% 30.06 in 10.0 mi ENE 3.5 mph - N/A   Partly Cloudy
11:53 AM 55.0 °F 46.9 °F 74% 30.05 in 10.0 mi NNE 6.9 mph - N/A   Partly Cloudy
12:53 PM 64.0 °F 46.9 °F 54% 30.02 in 10.0 mi NNE 6.9 mph - N/A   Clear
1:53 PM 66.0 °F 42.1 °F 42% 30.00 in 10.0 mi Variable 5.8 mph - N/A   Clear
2:53 PM 71.1 °F 42.1 °F 35% 29.99 in 10.0 mi NE 4.6 mph - N/A   Clear
3:53 PM 71.1 °F 36.0 °F 28% 29.97 in 10.0 mi ENE 6.9 mph - N/A   Clear
4:53 PM 70.0 °F 36.0 °F 29% 29.96 in 10.0 mi NE 6.9 mph - N/A   Clear
5:53 PM 66.9 °F 37.9 °F 34% 29.97 in 10.0 mi Calm Calm - N/A   Clear
6:53 PM 60.1 °F 45.0 °F 57% 29.99 in 10.0 mi Calm Calm - N/A   Clear
7:53 PM 55.0 °F 46.9 °F 74% 30.00 in 10.0 mi Calm Calm - N/A   Clear
8:53 PM 55.0 °F 46.9 °F 74% 29.99 in 10.0 mi ENE 3.5 mph - N/A   Clear
9:53 PM 54.0 °F 46.0 °F 75% 29.99 in 10.0 mi Calm Calm - N/A   Partly Cloudy
10:53 PM 57.0 °F 45.0 °F 64% 29.96 in 10.0 mi NE 4.6 mph - N/A   Clear
11:53 PM 57.0 °F 46.0 °F 67% 29.95 in 10.0 mi NE 3.5 mph - N/A   Mostly Cloudy